Regional Weather Roundup
Issued by NWS Cleveland, OH

Home | Current Version | Previous Version | Text Only | Print | Product List | Glossary Off
Versions: 1 2 3 4 5 6 7 8 9 10 11 12 13 14 15 16 17 18 19 20 21 22 23 24 25 26 27 28 29 30 31 32 33 34 35 36 37 38 39 40 41 42 43 44 45 46 47 48 49 50

000
ASUS41 KCLE 102310
RWRCLE
OHIO REGIONAL WEATHER ROUNDUP
NATIONAL WEATHER SERVICE WILMINGTON, OH
600 PM EST WED FEB 10 2016

NOTE: "FAIR" INDICATES FEW OR NO CLOUDS BELOW 12,000 FEET WITH NO
SIGNIFICANT WEATHER AND/OR OBSTRUCTIONS TO VISIBILITY.

OHZ001>008-015>018-024>027-034-035-043-044-110000-
   NORTHWEST OHIO

CITY           SKY/WX    TMP DP  RH WIND       PRES   REMARKS
DEFIANCE       LGT SNOW  20  13  74 W7G17     29.97R VSB 1   WCI  11
FINDLAY        LGT SNOW  19  14  81 W17       29.94R WCI   4
TOLEDO EXPRESS CLOUDY    20   8  60 W20G26    29.93R WCI   4
TOLEDO EXEC    CLOUDY    22  10  60 W14       29.93R WCI   9
LIMA           MOCLDY    17   9  70 W23G30    29.96R WCI  -1
$$

OHZ009>014-019>023-028>033-038-089-110000-
   NORTHEAST OHIO

CITY           SKY/WX    TMP DP  RH WIND       PRES   REMARKS
CLE-HOPKINS    LGT SNOW  19  13  77 W15       29.91R VSB 3/4 WCI   5
CLE-LAKEFRONT  FLURRIES  23  13  65 W21G26    29.87R WCI   8
CUY CO. ARPT   LGT SNOW  21  16  79 NW14      29.87R WCI   8
LORAIN-ELYRIA  MOCLDY    19  10  68 W13       29.90R WCI   6
ASHTABULA      FLURRIES  18  12  77 NW10      29.85R WCI   6
AKRON-CANTON   LGT SNOW  19  12  74 W8        29.86R VSB 1   WCI   9
WOOSTER        FAIR      18  10  71 W13       29.89R WCI   5
MANSFIELD      LGT SNOW  16  14  92 W14G20    29.89R VSB 1   WCI   2
YOUNGSTOWN     LGT SNOW  19  13  77 W12       29.84R WCI   7
$$

OHZ042-051>053-060>062-070>072-077>081-110000-
  SOUTHWEST OHIO

CITY           SKY/WX    TMP DP  RH WIND       PRES   REMARKS
CINC-COVINGTON CLOUDY    17   5  59 W10       30.05R WCI   5
CINC-LUNKEN    CLOUDY    18   6  59 W13       30.10R WCI   5
HAMILTON       CLOUDY    17   6  62 NW8       30.09R WCI   7
DAYTON         CLOUDY    15   7  70 W22       30.02R WCI  -3
WRIGHT-PAT AFB LGT SNOW  15   8  71 SW17      30.03R WCI  -1
DAYTON GENERAL MOCLDY    14   2  58 W14G25    30.04R WCI  -1
WILMINGTON     CLOUDY    14   5  67 W14       30.02R WCI  -1
$$

OHZ036-037-039>041-045>050-054>059-063>069-073>076-082>088-110000-
  CENTRAL AND SOUTHEAST OHIO

CITY           SKY/WX    TMP DP  RH WIND       PRES   REMARKS
COLUMBUS       LGT SNOW  16   9  73 W12       30.00R WCI   3
OSU AIRPORT    FLURRIES  16   8  71 W17       29.99R WCI   0
BOLTON FIELD   CLOUDY    16   7  67 W14G22    30.00R WCI   1
RICKENBACK AFB CLOUDY    16   8  70 W20G25    30.01R WCI   0
NEWARK         LGT SNOW  18  10  71 MISG      29.97R
MARION         CLOUDY    18   7  62 W18G28    29.95R WCI   2
LANCASTER      LGT SNOW  17   8  67 W14G26    30.01R WCI   3
ZANESVILLE     LGT SNOW  19  11  70 W15G24    29.96R WCI   5
NEW PHILLY     MOCLDY    20  11  68 SW8G20    29.92R WCI  10
$$



USA.gov is the U.S. government's official web portal to all federal, state and local government web resources and services.